Weather History for Mineral Point, WI

Change the Weather History Date:

Tuesday, December 6, 2011

  Actual Average (KLNR) Record (KLNR)
Temperature  
Mean Temperature 30 °F -  
Max Temperature 32 °F 36 °F 48 °F (2001)
Min Temperature 28 °F 21 °F -14 °F (2007)
Degree Days  
Heating Degree Days 35    
Moisture  
Dew Point 21 °F    
Average Humidity 71    
Maximum Humidity 86    
Minimum Humidity 60    
Precipitation  
Precipitation 0.00 in - - ()
Sea Level Pressure  
Sea Level Pressure 30.23 in    
Wind  
Wind Speed 6 mph (East)    
Max Wind Speed 16 mph    
Max Gust Speed 22 mph    
Visibility 10 miles    
Events      
Averages and records for this station are not official NWS values.
T = Trace of Precipitation, MM = Missing Value Source: NWS Daily Summary

Daily Weather History Graph

Daily Weather History Graph

Search for Another Location

Airport:

Trip Planner

Search our weather history database for the weather conditions in past years. The results will help you decide how hot, cold, wet, or windy it might be!

Date:

Astronomy

Dec. 06, 2011 Rise Set
Actual Time 7:16 AM CST 4:26 PM CST
Civil Twilight 6:45 AM CST 4:58 PM CST
Nautical Twilight 6:09 AM CST 5:34 PM CST
Astronomical Twilight 5:35 AM CST 6:08 PM CST
Moon 1:56 PM CST (12/6) 3:32 AM CST (12/6)
Length of Visible Light 10h 13m
Length of Day
9h 09m
Waxing Gibbous, 87% of the Moon is Illuminated
Dec 6
Waxing Gibbous
Dec 10
Full
Dec 17
Last Quarter
Dec 24
New
Jan 1
First Quarter

Hourly Weather History & Observations

Time (CST) Temp. Windchill Dew Point Humidity Pressure Visibility Wind Dir Wind Speed Gust Speed Precip Events Conditions
12:15 AM 32.0 °F 24.8 °F 24.8 °F 75% 30.31 in 10.0 mi NNE 8.1 mph - N/A   Overcast
12:35 AM 32.0 °F 26.4 °F 24.8 °F 75% 30.31 in 10.0 mi NNE 5.8 mph - N/A   Overcast
12:55 AM 32.0 °F 24.8 °F 24.8 °F 75% 30.31 in 10.0 mi NNE 8.1 mph - N/A   Overcast
1:15 AM 30.2 °F 24.3 °F 24.8 °F 80% 30.30 in 10.0 mi NNE 5.8 mph - N/A   Overcast
1:35 AM 30.2 °F 23.4 °F 24.8 °F 80% 30.30 in 10.0 mi NNE 6.9 mph - N/A   Overcast
2:15 AM 30.2 °F 24.3 °F 24.8 °F 80% 30.31 in 10.0 mi NNE 5.8 mph - N/A   Overcast
2:35 AM 30.2 °F 24.3 °F 24.8 °F 80% 30.31 in 10.0 mi NNE 5.8 mph - N/A   Overcast
2:55 AM 30.2 °F 22.6 °F 23.0 °F 75% 30.30 in 10.0 mi NE 8.1 mph - N/A   Overcast
3:15 AM 30.2 °F 21.9 °F 23.0 °F 75% 30.30 in 10.0 mi NE 9.2 mph - N/A   Overcast
3:35 AM 30.2 °F 22.6 °F 23.0 °F 75% 30.30 in 10.0 mi NNE 8.1 mph - N/A   Overcast
3:55 AM 30.2 °F 22.6 °F 23.0 °F 75% 30.29 in 10.0 mi NE 8.1 mph - N/A   Overcast
4:15 AM 30.2 °F 21.3 °F 23.0 °F 75% 30.29 in 10.0 mi NE 10.4 mph - N/A   Overcast
4:35 AM 30.2 °F 21.9 °F 23.0 °F 75% 30.30 in 10.0 mi NE 9.2 mph - N/A   Overcast
4:55 AM 30.2 °F 22.6 °F 23.0 °F 75% 30.29 in 10.0 mi NE 8.1 mph - N/A   Overcast
5:15 AM 30.2 °F 23.4 °F 23.0 °F 75% 30.30 in 10.0 mi NNE 6.9 mph - N/A   Overcast
5:55 AM 30.2 °F 21.3 °F 23.0 °F 75% 30.30 in 10.0 mi NE 10.4 mph - N/A   Overcast
6:15 AM 28.4 °F 21.2 °F 23.0 °F 80% 30.30 in 10.0 mi NE 6.9 mph - N/A   Overcast
6:35 AM 28.4 °F 20.4 °F 21.2 °F 74% 30.30 in 10.0 mi ENE 8.1 mph - N/A   Overcast
6:55 AM 28.4 °F 21.2 °F 21.2 °F 74% 30.29 in 10.0 mi ENE 6.9 mph - N/A   Overcast
7:15 AM 28.4 °F 21.2 °F 21.2 °F 74% 30.28 in 10.0 mi ENE 6.9 mph - N/A   Overcast
7:55 AM 28.4 °F 22.2 °F 21.2 °F 74% 30.29 in 10.0 mi East 5.8 mph - N/A   Overcast
8:15 AM 28.4 °F 21.2 °F 19.4 °F 69% 30.29 in 10.0 mi ENE 6.9 mph - N/A   Overcast
8:35 AM 28.4 °F 20.4 °F 21.2 °F 74% 30.28 in 10.0 mi ENE 8.1 mph - N/A   Overcast
8:55 AM 28.4 °F 21.2 °F 19.4 °F 69% 30.29 in 10.0 mi ENE 6.9 mph - N/A   Overcast
9:15 AM 28.4 °F 22.2 °F 17.6 °F 64% 30.29 in 10.0 mi East 5.8 mph - N/A   Overcast
9:35 AM 28.4 °F 19.7 °F 17.6 °F 64% 30.29 in 10.0 mi East 9.2 mph - N/A   Overcast
9:55 AM 28.4 °F 20.4 °F 17.6 °F 64% 30.29 in 10.0 mi East 8.1 mph - N/A   Overcast
10:15 AM 30.2 °F 23.4 °F 17.6 °F 60% 30.29 in 10.0 mi East 6.9 mph - N/A   Overcast
10:35 AM 30.2 °F 23.4 °F 17.6 °F 60% 30.28 in 10.0 mi East 6.9 mph - N/A   Overcast
10:55 AM 30.2 °F 24.3 °F 19.4 °F 64% 30.27 in 10.0 mi East 5.8 mph - N/A   Overcast
11:15 AM 30.2 °F 24.3 °F 19.4 °F 64% 30.26 in 10.0 mi East 5.8 mph - N/A   Overcast
11:35 AM 30.2 °F 26.7 °F 17.6 °F 60% 30.26 in 10.0 mi ENE 3.5 mph - N/A   Overcast
11:55 AM 30.2 °F 26.7 °F 19.4 °F 64% 30.25 in 10.0 mi ENE 3.5 mph - N/A   Overcast
12:15 PM 30.2 °F 26.7 °F 19.4 °F 64% 30.25 in 10.0 mi ESE 3.5 mph - N/A   Overcast
12:35 PM 30.2 °F 26.7 °F 17.6 °F 60% 30.24 in 10.0 mi East 3.5 mph - N/A   Overcast
12:55 PM 30.2 °F - 17.6 °F 60% 30.23 in 10.0 mi Calm Calm - N/A   Overcast
1:15 PM 30.2 °F - 19.4 °F 64% 30.22 in 10.0 mi Calm Calm - N/A   Overcast
1:35 PM 30.2 °F - 17.6 °F 60% 30.22 in 10.0 mi Calm Calm - N/A   Overcast
1:55 PM 30.2 °F - 17.6 °F 60% 30.21 in 10.0 mi Calm Calm - N/A   Overcast
2:15 PM 30.2 °F - 19.4 °F 64% 30.19 in 10.0 mi Calm Calm - N/A   Overcast
2:35 PM 30.2 °F 25.4 °F 21.2 °F 69% 30.18 in 10.0 mi SSW 4.6 mph - N/A   Overcast
3:15 PM 30.2 °F 26.7 °F 19.4 °F 64% 30.18 in 10.0 mi South 3.5 mph - N/A   Overcast
3:55 PM 30.2 °F 26.7 °F 19.4 °F 64% 30.16 in 10.0 mi South 3.5 mph - N/A   Overcast
4:15 PM 30.2 °F - 21.2 °F 69% 30.16 in 10.0 mi Calm Calm - N/A   Overcast
4:35 PM 30.2 °F - 19.4 °F 64% 30.16 in 10.0 mi Calm Calm - N/A   Overcast
4:55 PM 30.2 °F 26.7 °F 21.2 °F 69% 30.16 in 10.0 mi SSW 3.5 mph - N/A   Overcast
5:15 PM 30.2 °F 25.4 °F 19.4 °F 64% 30.15 in 10.0 mi SSW 4.6 mph - N/A   Overcast
5:55 PM 30.2 °F - 21.2 °F 69% 30.16 in 10.0 mi Calm Calm - N/A   Overcast
6:35 PM 30.2 °F - 21.2 °F 69% 30.16 in 10.0 mi Calm Calm - N/A   Overcast
6:55 PM 30.2 °F 26.7 °F 21.2 °F 69% 30.16 in 10.0 mi SSW 3.5 mph - N/A   Overcast
7:15 PM 30.2 °F 26.7 °F 21.2 °F 69% 30.16 in 10.0 mi SSW 3.5 mph - N/A   Overcast
7:35 PM 30.2 °F 26.7 °F 21.2 °F 69% 30.15 in 10.0 mi SSW 3.5 mph - N/A   Overcast
7:55 PM 30.2 °F 26.7 °F 21.2 °F 69% 30.14 in 10.0 mi SSW 3.5 mph - N/A   Overcast
8:15 PM 30.2 °F 25.4 °F 21.2 °F 69% 30.14 in 10.0 mi SSW 4.6 mph - N/A   Overcast
8:35 PM 30.2 °F 25.4 °F 21.2 °F 69% 30.13 in 10.0 mi SSW 4.6 mph - N/A   Overcast
8:55 PM 30.2 °F 25.4 °F 23.0 °F 75% 30.12 in 10.0 mi SSW 4.6 mph - N/A   Overcast
9:15 PM 30.2 °F 24.3 °F 23.0 °F 75% 30.11 in 10.0 mi SSW 5.8 mph - N/A   Overcast
9:35 PM 30.2 °F 22.6 °F 23.0 °F 75% 30.10 in 10.0 mi SW 8.1 mph - N/A   Overcast
9:55 PM 30.2 °F 23.4 °F 24.8 °F 80% 30.10 in 10.0 mi SW 6.9 mph - N/A   Overcast
10:15 PM 30.2 °F 22.6 °F 26.6 °F 86% 30.10 in 10.0 mi SW 8.1 mph - N/A   Overcast
10:35 PM 30.2 °F 24.3 °F 24.8 °F 80% 30.09 in 10.0 mi WSW 5.8 mph - N/A   Overcast
10:55 PM 30.2 °F 21.9 °F 24.8 °F 80% 30.09 in 10.0 mi WSW 9.2 mph - N/A   Overcast
11:15 PM 30.2 °F 21.3 °F 23.0 °F 75% 30.08 in 10.0 mi WSW 10.4 mph - N/A   Overcast
11:55 PM 28.4 °F 16.6 °F 23.0 °F 80% 30.09 in 10.0 mi WSW 16.1 mph 21.9 mph N/A   Overcast